SCP
1 1 2 3 3 3 2 2 1 1 1 1 1 1 1 1 1 1 1 1 1 1 0 0 0 0 0 0 0 0 0 0 0 0 0 0 1 1 1 1 0 1 1
1 2 2 3 3 3 3 2 2 1 1 1 1 1 1 1 1 1 1 1 1 1 1 0 0 0 0 0 0 0 0 0 0 0 0 0 0 0 0 0 0 0 0
1 2 2 3 3 3 3 3 2 1 1 1 2 2 1 1 1 1 1 1 1 1 1 1 1 1 1 0 0 0 0 0 0 0 0 0 0 0 0 0 0 0 0
1 2 2 3 3 3 4 3 3 2 2 2 2 2 2 1 1 1 1 1 1 1 1 1 1 1 1 0 0 0 0 0 0 0 0 0 0 0 0 1 1 1 1
1 2 2 3 3 4 4 4 3 3 3 3 3 2 2 2 2 2 1 1 1 1 1 1 1 1 1 1 1 1 1 1 1 0 0 0 0 0 1 1 1 1 1
1 2 2 3 4 4 5 5 4 4 4 3 3 3 3 2 2 2 2 2 2 2 1 1 1 0 0 1 1 1 1 1 1 0 0 0 1 1 1 1 1 1 0
2 2 3 3 4 5 5 5 5 5 4 4 3 3 3 3 2 2 2 2 2 2 1 1 1 0 0 0 1 1 1 1 1 0 1 1 1 1 1 0 0 0 0
2 2 3 4 4 4 5 5 5 5 5 4 4 3 3 3 3 3 2 2 2 2 1 1 0 0 0 0 1 1 1 1 1 0 1 1 1 1 1 0 0 0 0
2 3 4 4 4 4 5 5 5 5 5 4 4 3 3 3 3 3 3 3 2 1 1 1 1 0 0 0 0 1 1 0 0 0 1 1 1 1 1 1 0 0 0
2 3 4 5 5 4 4 4 4 4 4 4 4 3 3 3 3 3 3 2 2 1 1 1 1 1 1 0 0 0 0 0 1 1 1 1 1 1 1 1 1 0 0
2 3 4 5 5 5 4 4 4 4 3 3 3 3 3 3 3 3 2 2 2 1 1 1 1 1 0 0 0 0 0 0 1 1 1 1 1 1 1 1 1 0 0
2 3 4 5 6 6 5 5 4 4 3 3 3 3 3 3 3 2 2 2 1 1 1 1 1 1 0 0 0 0 0 1 1 1 1 1 1 1 1 1 1 1 0
2 3 4 5 6 6 7 6 6 5 4 3 3 3 3 4 3 3 2 2 1 1 1 1 1 1 1 1 1 1 1 1 1 1 1 1 1 1 1 1 1 1 0
2 3 4 5 6 7 8 8 7 6 5 4 4 4 4 4 4 3 2 2 1 1 1 1 1 1 1 1 1 1 1 1 1 1 1 1 1 1 1 1 1 1 0
2 3 3 4 6 7 8 9 8 7 6 5 5 4 4 4 4 3 2 2 2 1 1 1 1 1 1 1 1 1 1 1 1 1 1 1 1 1 2 1 1 1 1
2 2 3 4 5 6 8 9 9 9 8 7 6 5 4 4 4 3 2 1 1 1 1 1 1 1 1 1 1 1 1 1 1 1 1 1 1 1 1 1 1 1 1
2 2 2 3 4 6 7 9 10 10 10 9 7 5 4 4 3 3 1 1 1 1 1 1 1 1 1 1 1 1 1 1 1 1 1 1 1 1 1 1 1 1 1
2 2 2 3 4 5 6 8 10 11 10 9 8 6 5 4 3 2 1 1 1 1 1 1 1 1 1 1 1 1 1 1 1 1 1 1 1 1 1 1 1 1 1
1 1 2 3 3 4 5 7 9 10 10 9 8 7 5 4 3 2 1 1 1 1 1 1 1 1 1 1 1 1 1 1 1 1 1 1 1 1 1 0 0 1 1
1 1 2 2 3 4 5 6 8 8 8 8 7 6 5 3 2 1 1 1 1 1 1 1 1 1 1 1 1 1 1 1 1 1 1 1 1 1 1 1 1 1 1
1 1 2 3 3 4 5 6 7 7 7 7 6 5 4 3 2 1 1 1 1 1 1 1 1 1 1 1 1 1 1 1 1 1 0 0 0 1 1 1 1 1 1
1 1 2 2 3 4 5 6 6 7 6 6 5 3 3 2 1 1 1 1 1 1 1 1 1 1 1 1 1 1 1 0 0 0 0 0 0 1 1 1 1 1 1
1 1 1 2 3 4 5 6 6 6 6 5 4 3 2 1 1 1 1 1 1 1 1 1 1 1 1 1 1 1 1 0 0 0 0 0 0 1 1 1 1 1 1
1 1 1 2 2 3 4 5 5 5 5 4 3 3 2 1 1 1 1 1 1 1 1 1 1 1 1 1 1 1 1 0 0 0 0 0 0 0 1 1 1 1 1
0 0 1 2 3 3 4 4 4 4 4 4 3 3 2 1 1 1 1 0 0 0 0 0 0 1 0 0 0 1 1 0 0 0 0 0 0 0 1 1 1 1 1
0 0 1 2 3 3 4 4 4 4 4 4 3 2 2 1 1 1 1 0 0 0 0 0 0 0 0 0 0 0 1 0 0 0 0 0 0 0 1 1 1 1 1
Wind_Speed
5 5 5 5 6 7 8 8 8 8 8 8 8 8 8 8 8 8 8 8 9 9 10 10 11 11 11 12 12 12 12 13 13 13 13 13 14 14 13 12 10 11 13
6 6 6 5 6 7 8 8 8 8 7 7 8 8 8 8 7 7 7 8 8 9 9 9 10 10 11 11 12 12 12 12 12 11 10 11 12 13 13 12 11 10 12
7 7 7 5 7 8 8 7 7 7 7 7 7 7 7 7 7 7 7 8 8 8 9 9 9 10 11 11 12 12 12 11 10 8 5 8 11 13 13 13 12 13 12
7 6 7 6 6 7 7 7 7 7 7 7 7 7 7 7 7 7 7 7 8 8 8 9 9 10 10 11 11 11 11 10 8 4 5 7 9 12 12 12 12 12 12
7 6 7 6 6 6 6 6 6 6 6 6 6 7 7 7 7 6 6 6 7 7 8 8 9 9 10 10 10 10 10 9 6 5 7 7 7 11 11 11 12 12 12
7 6 7 5 6 6 6 6 6 6 6 5 5 6 6 7 7 7 6 6 6 7 7 8 8 9 9 9 9 9 9 6 4 6 6 6 7 10 10 11 11 11 11
6 5 7 5 6 6 6 5 5 5 5 5 5 5 5 6 6 6 6 6 6 6 7 7 8 8 8 8 9 8 7 4 4 6 6 6 8 9 10 10 10 10 10
6 5 6 5 5 5 5 5 5 5 5 5 4 4 4 5 5 5 5 5 5 6 7 7 7 7 8 8 8 8 6 2 4 5 5 6 8 8 9 9 9 9 9
5 4 4 5 4 4 4 5 4 4 4 5 5 4 4 4 4 4 5 5 5 5 6 7 7 7 7 7 7 7 5 2 3 4 5 5 7 7 8 8 8 8 8
4 3 3 3 3 4 4 4 4 4 4 5 5 5 4 4 3 3 4 5 5 5 6 6 6 6 6 6 6 6 4 1 3 4 3 5 7 7 7 7 8 8 7
3 3 3 2 2 2 2 4 4 4 4 4 4 4 2 2 2 2 3 4 4 5 5 5 6 6 5 6 5 4 2 2 3 3 3 6 6 6 6 6 6 6 6
4 3 2 2 2 2 2 2 2 2 2 2 2 2 1 1 1 1 3 3 3 4 4 4 4 5 3 3 4 3 2 2 2 2 3 5 5 5 5 5 5 5 5
4 3 2 2 2 2 1 1 1 1 1 1 1 1 1 1 1 1 1 2 3 3 3 4 4 3 3 2 2 2 2 2 2 2 4 5 4 4 4 4 5 5 5
4 4 2 2 2 2 1 1 1 1 0 0 1 1 1 1 1 1 1 2 2 2 2 2 2 3 3 3 3 3 3 2 2 2 3 4 3 3 3 4 4 4 4
5 4 3 3 2 2 1 1 1 0 0 0 0 1 1 1 2 2 1 2 2 2 2 2 3 3 3 3 3 3 3 3 3 2 3 4 2 2 3 3 3 3 3
5 4 3 3 2 2 2 1 1 1 1 1 0 1 1 2 2 2 2 2 2 2 2 2 3 3 3 2 2 3 3 3 3 3 2 3 3 1 1 2 2 2 2
5 4 3 3 3 2 2 2 1 1 1 1 1 1 1 1 2 2 2 2 2 2 3 3 3 3 3 3 3 3 2 3 3 3 3 2 2 2 1 1 1 1 2
4 4 4 3 3 3 2 2 1 1 1 1 1 1 2 2 2 2 2 2 2 2 3 3 3 3 3 3 3 2 2 2 3 3 2 2 2 2 2 1 0 1 1
4 4 4 4 3 3 3 2 2 1 1 1 1 1 1 2 2 2 2 2 2 2 3 3 3 3 4 3 3 2 2 2 3 3 3 2 2 1 1 2 1 0 0
4 4 4 4 3 3 2 2 1 1 1 1 0 0 1 1 2 2 2 2 3 2 3 3 4 3 3 3 3 2 1 1 2 2 3 2 2 2 1 1 2 1 0
4 4 4 4 3 3 2 2 2 2 1 1 1 1 1 1 1 2 2 2 2 3 3 4 3 4 3 3 3 2 2 2 2 2 2 2 2 2 2 2 1 1 1
4 4 4 4 4 4 2 2 1 1 1 1 1 1 1 1 1 1 2 2 2 2 3 4 3 3 3 3 3 3 3 3 2 3 2 2 3 2 2 1 2 2 1
4 4 4 4 4 4 3 2 2 1 1 1 1 1 1 1 2 2 3 2 2 3 3 4 4 4 4 3 3 3 3 3 2 3 3 3 3 2 2 2 2 2 2
4 4 4 4 4 4 4 4 4 3 2 2 2 1 1 1 2 2 3 3 2 2 3 3 3 3 4 4 3 3 2 1 2 2 3 3 3 3 3 2 2 2 2
4 4 4 4 4 4 5 5 5 4 3 2 2 2 1 1 1 2 2 3 3 2 3 3 3 3 3 4 3 3 3 2 3 3 3 3 3 3 3 3 2 2 2
3 3 4 4 4 4 4 5 5 5 4 3 3 2 2 1 1 1 2 2 2 2 3 3 3 4 3 4 3 3 3 3 3 3 3 3 3 2 3 2 2 3 2
Wind_Direction
147 144 126 123 118 114 108 104 101 99 100 102 102 101 99 96 95 95 92 91 89 87 90 92 90 89 87 85 85 83 82 81 80 81 83 83 83 83 82 81 84 85 81
146 144 128 126 120 117 113 107 104 103 102 101 100 99 99 98 96 93 94 95 94 93 93 93 93 92 89 86 85 85 84 82 80 80 84 90 86 85 83 77 71 80 82
140 138 138 126 119 116 114 111 108 105 103 101 98 96 98 99 97 94 94 96 96 99 98 97 95 93 91 89 87 86 86 84 82 80 96 96 91 86 84 82 81 82 80
138 138 134 119 119 116 115 113 112 107 104 104 101 97 96 98 99 99 97 98 98 99 99 100 98 95 93 92 89 88 87 85 79 78 92 86 90 86 83 82 83 83 80
139 137 121 114 117 119 118 116 112 110 107 106 104 99 96 95 96 99 101 100 101 102 102 101 101 100 97 94 92 90 89 87 81 88 86 87 88 88 87 85 83 81 79
139 136 120 117 116 114 117 117 115 112 110 110 107 102 97 96 95 93 99 101 104 106 107 106 103 101 99 96 95 93 92 90 106 89 84 86 87 89 88 87 86 82 79
136 131 124 112 116 114 110 109 112 114 112 110 106 101 99 97 99 99 99 102 106 109 113 113 108 104 101 98 99 96 93 78 95 93 89 87 84 88 90 89 88 85 83
136 133 127 115 111 113 113 108 106 110 111 111 106 100 100 99 98 104 101 104 107 107 108 113 108 106 104 101 100 97 92 92 107 98 95 91 83 90 94 93 92 88 86
134 134 134 137 128 117 109 105 98 97 104 101 94 90 87 90 95 101 103 102 106 109 107 112 111 109 110 105 100 95 86 65 111 101 97 91 88 94 96 96 95 92 88
135 137 137 136 136 138 131 105 94 91 92 94 87 76 76 89 99 93 120 107 106 112 112 115 118 115 114 110 103 94 88 150 111 105 99 92 92 97 98 99 96 94 91
145 145 141 139 134 131 130 111 107 99 90 104 102 85 106 146 143 135 105 101 107 114 118 119 126 122 119 113 106 102 139 133 118 101 95 89 102 104 103 103 101 97 94
166 159 150 149 141 133 125 127 135 134 132 140 138 141 159 149 135 121 96 106 112 113 122 121 128 141 161 149 136 160 165 140 125 114 92 90 110 115 114 111 108 104 99
173 162 162 161 155 158 151 145 136 139 147 159 152 157 190 165 161 176 169 158 158 159 157 148 166 166 171 159 164 171 162 153 138 122 101 95 115 123 123 120 115 108 102
176 174 175 171 173 179 172 153 153 156 171 157 183 198 210 205 204 192 206 192 190 182 177 181 185 168 171 170 173 172 171 171 154 134 102 96 116 132 130 124 122 122 114
187 183 182 176 182 181 171 161 156 168 189 169 240 230 229 230 224 208 211 202 198 188 183 186 189 179 179 177 178 179 179 176 169 157 122 99 108 141 145 138 132 133 130
198 194 186 180 184 186 182 184 185 177 184 217 236 259 245 243 241 229 216 212 204 196 190 195 194 182 181 176 178 184 187 185 181 172 157 133 113 117 154 157 155 155 152
204 196 190 188 185 189 190 196 190 183 185 208 237 240 233 236 242 239 222 219 209 197 194 192 192 191 184 181 187 193 193 197 190 185 178 173 159 139 126 193 192 190 187
205 196 193 190 187 195 192 194 191 180 181 197 232 246 235 233 238 244 235 224 217 202 199 195 196 192 187 190 190 189 192 194 201 199 190 186 188 181 155 109 263 205 207
206 200 195 191 188 193 190 186 184 164 167 196 209 250 257 242 233 234 244 235 223 211 203 201 203 199 188 191 192 189 192 197 204 201 196 189 189 196 185 123 119 109 68
202 203 202 191 190 186 184 183 180 164 170 196 205 234 266 254 242 233 232 230 225 214 204 202 199 200 196 190 182 181 178 197 217 204 202 196 193 199 211 199 186 177 190
194 198 201 195 191 189 191 194 193 200 204 200 214 229 234 251 250 242 237 224 227 217 208 204 197 190 189 186 183 181 180 198 211 227 216 204 193 198 205 214 225 233 200
195 197 198 198 195 197 198 199 205 205 212 217 214 222 231 246 241 242 237 227 227 223 209 205 195 193 188 194 202 196 203 199 202 227 229 220 212 200 198 220 232 234 252
198 201 202 198 197 197 191 178 165 177 202 208 218 226 238 245 242 234 236 232 228 230 221 210 205 208 198 195 208 220 223 220 192 192 212 219 219 213 211 225 245 242 247
206 201 203 200 198 196 192 188 186 195 206 220 222 228 236 242 243 236 229 227 225 232 233 218 214 220 210 199 199 226 259 276 219 188 194 217 226 227 230 223 240 249 253
200 194 194 195 198 197 199 202 202 204 208 204 204 209 211 234 243 233 228 222 221 225 231 223 214 213 215 209 204 205 213 229 245 232 220 212 219 226 234 235 237 246 252
187 184 185 188 195 197 201 207 211 208 204 199 203 206 215 217 228 226 224 218 214 214 221 222 211 213 216 213 211 208 209 209 215 228 231 229 235 232 241 240 239 246 254